San Antonio Stinson, TX

5:24 AM CDT on May 27, 2018 (GMT -0500)
Stinson Municipal

Weather History for KSSF - November, 2012

Change the Weather History Date:

Monday, November 5, 2012

  Actual Average Record
Temperature  
Mean Temperature 72 °F -  
Max Temperature 84 °F 72 °F 93 °F (2017)
Min Temperature 59 °F 52 °F 43 °F (2010)
Cooling Degree Days 6    
Growing Degree Days 22 (Base 50)    
Moisture  
Dew Point 60 °F    
Average Humidity 70    
Maximum Humidity 96    
Minimum Humidity 41    
Precipitation  
Precipitation 0.03 in - - ()
Sea Level Pressure  
Sea Level Pressure 30.01 in    
Wind  
Wind Speed 2 mph (South)    
Max Wind Speed 8 mph    
Max Gust Speed -    
Visibility 8 miles    
Events Rain    
Averages and records for this station are not official NWS values.
T = Trace of Precipitation, MM = Missing Value Source: NWS Daily Summary

Daily Weather History Graph

Daily Weather History Graph

Search for Another Location

Airport or City:

Astronomy

Nov. 05, 2012 Rise Set
Actual Time 6:50 AM CST 5:44 PM CST
Civil Twilight 6:25 AM CST 6:09 PM CST
Nautical Twilight 5:57 AM CST 6:37 PM CST
Astronomical Twilight 5:29 AM CST 7:05 PM CST
Moon 11:22 PM CST (11/5) 12:09 PM CST (11/5)
Length of Visible Light 11h 43m
Length of Day
10h 54m
Waning Gibbous, 62% of the Moon is Illuminated
Nov 5
Waning Gibbous
Nov 6
Last Quarter
Nov 13
New
Nov 20
First Quarter
Nov 28
Full

Hourly Weather History & Observations

Time (CST) Temp. Heat Index Dew Point Humidity Pressure Visibility Wind Dir Wind Speed Gust Speed Precip Events Conditions
12:53 AM 63.0 °F - 61.0 °F 93% 30.05 in 8.0 mi Calm Calm - N/A   Clear
1:53 AM 63.0 °F - 61.0 °F 93% 30.04 in 8.0 mi Calm Calm - N/A   Clear
2:53 AM 62.1 °F - 61.0 °F 96% 30.03 in 4.0 mi Calm Calm - N/A   Clear
3:53 AM 60.1 °F - 59.0 °F 96% 30.03 in 5.0 mi Calm Calm - N/A   Clear
4:53 AM 61.0 °F - 59.0 °F 93% 30.03 in 4.0 mi Calm Calm - N/A   Clear
5:53 AM 59.0 °F - 57.0 °F 93% 30.04 in 5.0 mi Calm Calm - N/A   Clear
6:53 AM 59.0 °F - 57.9 °F 96% 30.04 in 6.0 mi Calm Calm - N/A   Clear
7:53 AM 62.1 °F - 60.1 °F 93% 30.05 in 7.0 mi Calm Calm - N/A   Clear
8:53 AM 68.0 °F - 62.1 °F 81% 30.06 in 8.0 mi Calm Calm - N/A   Clear
9:53 AM 75.0 °F - 63.0 °F 66% 30.05 in 10.0 mi WSW 6.9 mph - N/A   Clear
10:53 AM 79.0 °F - 64.0 °F 60% 30.04 in 10.0 mi SW 5.8 mph - N/A   Clear
11:53 AM 80.1 °F 81.5 °F 63.0 °F 56% 30.02 in 10.0 mi SSW 8.1 mph - N/A   Clear
12:53 PM 82.0 °F 83.0 °F 62.1 °F 51% 29.99 in 10.0 mi Calm Calm - N/A   Clear
1:53 PM 84.0 °F 84.0 °F 60.1 °F 44% 29.96 in 9.0 mi West 5.8 mph - N/A   Clear
2:53 PM 84.0 °F 83.8 °F 59.0 °F 43% 29.93 in 10.0 mi SW 4.6 mph - N/A   Clear
3:53 PM 84.0 °F 83.5 °F 57.9 °F 41% 29.92 in 10.0 mi SSW 6.9 mph - N/A   Clear
4:53 PM 82.9 °F 82.8 °F 59.0 °F 44% 29.93 in 10.0 mi South 3.5 mph - N/A   Scattered Clouds
5:53 PM 79.0 °F - 60.1 °F 52% 29.94 in 10.0 mi Calm Calm - N/A   Clear
6:53 PM 73.9 °F - 62.1 °F 66% 29.96 in 10.0 mi Calm Calm - N/A   Partly Cloudy
7:53 PM 75.9 °F - 62.1 °F 62% 29.98 in 10.0 mi ENE 4.6 mph - N/A   Scattered Clouds
8:53 PM 73.0 °F - 66.0 °F 79% 29.99 in 10.0 mi East 8.1 mph - 0.03 in Rain Light Rain
9:53 PM 71.1 °F - 60.1 °F 68% 30.03 in 10.0 mi ENE 6.9 mph - 0.00 in   Clear
10:53 PM 69.1 °F - 54.0 °F 58% 30.04 in 10.0 mi NE 8.1 mph - N/A   Clear
11:53 PM 64.9 °F - 52.0 °F 63% 30.06 in 10.0 mi East 4.6 mph - N/A   Clear